Location: Bu�n Treun
(12.1333°N, 108.3167°E)
Time: 13:14:29
(UTC+00:00)

ADEOS - Pass Details

Date: 13 July 2020
Orbit: 793 x 794 km, 98.9° (Epoch: 07 August)

Event Time Altitude Azimuth Distance (km) Brightness Sun altitude
Rises 21:05:53 0° 4° (N) 3,283 7.2 -19.3°
Reaches altitude 10° 21:08:16 10° 359° (N) 2,354 6.4 -18.8°
Maximum altitude 21:13:17 51° 284° (WNW) 990 3.8 -17.7°
Enters shadow 21:15:57 26° 221° (SW) 1,509 4.5 -17.1°
